This demonstration page uses our WeatherBlox Daily Observations layout. Learn more.

Left ArrowRight Arrow

38.89511, -77.03637

Hourly Observations for January 29, 2022

Temp ( °F °C ) Dew Point ( °F °C ) Humidity (%) Winds ( mph kmh ) Pressure ( in mb ) Visibility ( mi km ) Precip ( " mm )
12:16 am 00:16 Cloudy with Light Snow 32 0 28 -2.2 85 85 N 14 22 29.91 1013 2 3 0.00 0.00
12:41 am 00:41 Cloudy with Light Snow 32 0 28 -2.2 85 85 N 15 24 29.89 1012 2 3 0.00 0.00
12:47 am 00:47 Cloudy with Light Snow 32 0 28 -2 87 87 N 16 26 29.89 1012 3 5 0.00 0.00
12:52 am 00:52 Cloudy with Light Snow 32 0 28 -2.2 85 85 N 16 26 29.88 1012 3 5 0.00 0.00
1:24 am 01:24 Cloudy with Light Snow 32 0 27 -2.8 82 82 N 16 26 29.87 1012 4 6 0.00 0.00
1:52 am 01:52 Mostly Cloudy with Light Snow 31 -0.6 27 -2.8 85 85 N 16 26 29.85 1011 5 8 0.00 0.00
1:55 am 01:55 Mostly Cloudy 31 -0.6 27 -2.8 85 85 NNW 15 24 29.85 1011 10 16 0.00 0.00
2:52 am 02:52 Cloudy 31 -0.6 25 -3.9 79 79 NNW 23 37 29.84 1011 9 14 0.00 0.00
3:00 am 03:00 Cloudy 30 -1.1 24 -4.4 79 79 N 21 33 29.85 1011 10 16 0.00 0.00
3:15 am 03:15 Cloudy 30 -1.1 23 -5 75 75 N 24 39 29.85 1011 10 16 0.00 0.00
3:52 am 03:52 Cloudy 28 -2.2 20 -6.7 72 72 N 22 35 29.84 1011 10 16 0.00 0.00
4:24 am 04:24 Windy with Snow Likely 27 -2.8 19 -7.2 72 72 N 23 37 29.85 1011 10 16 0.00 0.00
4:52 am 04:52 Cloudy with Light Snow 26 -3.3 20 -6.7 78 78 NNW 17 28 29.85 1011 9 14 0.00 0.00
5:35 am 05:35 Cloudy 25 -3.9 17 -8.3 72 72 NNW 21 33 29.86 1011 9 14 0.00 0.00
5:52 am 05:52 Cloudy 24 -4.4 16 -8.9 71 71 NNW 22 35 29.85 1011 10 16 0.00 0.00
6:52 am 06:52 Cloudy 23 -5 12 -11.1 63 63 NNW 18 30 29.86 1011 10 16 0.00 0.00
7:52 am 07:52 Sunny 24 -4.4 12 -11.1 60 60 NNW 21 33 29.88 1012 10 16 0.00 0.00
8:52 am 08:52 Mostly Cloudy 24 -4.4 12 -11.1 60 60 NNW 21 33 29.89 1012 10 16 0.00 0.00
9:52 am 09:52 Mostly Cloudy 24 -4.4 12 -11.1 60 60 NNW 22 35 29.91 1013 10 16 0.00 0.00
10:52 am 10:52 Mostly Cloudy 25 -3.9 10 -12.2 53 53 NNW 24 39 29.91 1013 10 16 0.00 0.00
11:52 am 11:52 Mostly Cloudy 25 -3.9 7 -13.9 46 46 NW 24 39 29.91 1013 10 16 0.00 0.00
12:52 pm 12:52 Partly Cloudy 26 -3.3 7 -13.9 44 44 NW 20 31 29.89 1012 10 16 0.00 0.00
1:52 pm 13:52 Partly Cloudy 26 -3.3 6 -14.4 42 42 NNW 26 43 29.88 1012 10 16 0.00 0.00
2:52 pm 14:52 Mostly Sunny 27 -2.8 4 -15.6 37 37 NNW 22 35 29.88 1012 10 16 0.00 0.00
3:52 pm 15:52 Mostly Sunny 27 -2.8 2 -16.7 34 34 NW 16 26 29.88 1012 10 16 0.00 0.00
4:52 pm 16:52 Mostly Sunny 25 -3.9 -2 -18.9 30 30 NNW 22 35 29.90 1013 10 16 0.00 0.00
5:52 pm 17:52 Mostly Clear 24 -4.4 -2 -18.9 32 32 NNW 22 35 29.92 1013 10 16 0.00 0.00
6:52 pm 18:52 Clear 23 -5 -1 -18.3 35 35 NW 15 24 29.94 1014 10 16 0.00 0.00
7:52 pm 19:52 Clear 24 -4.4 0 -17.8 35 35 NW 18 30 29.95 1014 10 16 0.00 0.00
8:52 pm 20:52 Clear 23 -5 2 -16.7 40 40 NW 16 26 29.96 1015 10 16 0.00 0.00
9:52 pm 21:52 Clear 23 -5 2 -16.7 40 40 NW 13 20 29.99 1016 10 16 0.00 0.00
10:52 pm 22:52 Mostly Clear 22 -5.6 2 -16.7 42 42 WNW 16 26 30.01 1016 10 16 0.00 0.00
11:52 pm 23:52 Clear 22 -5.6 1 -17.2 40 40 NW 18 30 30.02 1017 10 16 0.00 0.00

Powered by AerisWeather